Date,TemperatureHighF,TemperatureAvgF,TemperatureLowF,DewpointHighF,DewpointAvgF,DewpointLowF,HumidityHigh,HumidityAvg,HumidityLow,PressureMaxIn,PressureMinIn,WindSpeedMaxMPH,WindSpeedAvgMPH,GustSpeedMaxMPH,PrecipitationSumIn
2013-1-1,31,22,7,22,13,-1,79,70,56,30.11,29.97,11,3,11,0.01
2013-1-2,28,22,15,21,16,8,80,77,72,30.14,30.02,8,3,12,0.00
2013-1-3,29,22,13,25,17,8,86,80,76,30.12,30.01,12,4,12,0.00
2013-1-4,34,28,24,24,21,18,84,76,61,30.14,29.98,19,7,19,0.00
2013-1-5,36,26,12,30,21,7,90,81,69,30.22,29.97,9,3,9,0.00
2013-1-6,36,33,31,31,29,26,88,85,80,30.22,29.86,11,4,11,0.03
2013-1-7,40,31,27,30,24,21,81,75,63,30.32,30.09,13,5,15,0.01
2013-1-8,39,29,19,31,23,15,87,79,68,30.20,30.10,9,2,9,0.00
2013-1-9,48,38,28,36,28,21,87,70,44,30.39,29.98,22,6,22,0.00
2013-1-10,46,32,19,34,24,14,88,75,56,30.52,30.12,10,2,10,0.09
2013-1-11,57,44,35,53,40,31,95,89,80,30.12,29.73,13,4,13,0.76
2013-1-12,61,49,44,54,45,41,93,86,69,29.92,29.79,9,3,9,0.01
2013-1-13,45,37,29,42,35,26,92,91,86,30.01,29.71,11,3,12,0.44
2013-1-14,29,23,13,26,18,9,88,82,77,30.38,30.01,16,4,16,0.00
2013-1-15,37,21,9,31,16,6,92,82,71,30.37,30.10,5,0,5,0.02
2013-1-16,40,28,17,28,20,13,91,72,45,30.10,29.76,17,4,17,0.00
2013-1-17,39,30,18,28,21,8,81,69,52,30.26,29.91,18,6,18,0.00
2013-1-18,36,25,13,23,15,6,77,66,53,30.37,29.92,14,5,21,0.00
2013-1-19,50,41,33,35,30,23,71,64,52,29.92,29.54,22,8,22,0.00
2013-1-20,43,22,16,35,10,4,71,59,44,30.13,29.54,29,10,29,0.88
2013-1-21,19,13,3,11,5,-4,79,69,60,30.09,29.91,17,4,17,0.00
2013-1-22,15,5,-3,2,-4,-10,74,67,54,30.21,30.05,15,4,15,0.00
2013-1-23,20,11,0,10,3,-7,77,70,63,30.21,30.01,13,3,13,0.00
2013-1-24,24,13,6,11,3,-5,83,66,43,30.52,30.05,16,3,16,0.02
2013-1-25,25,18,12,17,10,2,80,73,64,30.43,29.95,8,1,8,0.00
2013-1-26,30,22,15,20,15,8,83,74,61,30.40,29.99,11,2,11,0.01
2013-1-27,30,21,9,27,14,4,88,76,63,30.41,30.04,12,2,12,0.00
2013-1-28,45,37,30,44,35,27,93,91,87,30.07,29.82,8,2,10,0.17
2013-1-29,56,46,34,54,44,32,96,94,91,29.98,29.43,14,4,14,0.79
2013-1-30,59,49,32,56,47,28,95,92,88,29.44,29.11,22,6,22,0.48
2013-1-31,32,22,16,28,16,12,88,79,69,29.84,29.25,26,9,26,0.00
2013-2-1,22,14,7,15,8,1,85,78,70,30.20,29.84,15,6,15,0.00
2013-2-2,26,16,6,21,12,0,85,81,78,30.15,29.89,11,4,11,0.00
2013-2-3,25,13,-2,19,7,-6,88,79,71,29.96,29.79,16,3,16,0.00
2013-2-4,29,21,16,23,16,10,84,81,75,29.97,29.82,6,1,6,0.00
2013-2-5,28,20,1,25,15,-3,89,81,70,29.91,29.76,12,3,12,0.00
2013-2-6,42,25,6,31,18,2,92,74,53,30.24,29.91,13,2,13,0.05
2013-2-7,40,31,24,30,24,16,85,74,67,30.22,29.81,9,3,9,0.00
2013-2-8,30,26,11,27,20,5,90,80,63,30.29,29.75,22,5,22,0.00
2013-2-9,41,19,-1,30,11,-5,90,73,55,30.38,30.22,9,1,9,0.10
2013-2-10,40,30,19,36,25,14,89,80,65,30.22,29.65,11,3,11,0.03
2013-2-11,44,37,31,42,31,25,93,81,73,29.83,29.52,25,9,25,0.20
2013-2-12,34,30,27,26,24,21,81,77,72,30.00,29.83,18,5,18,0.00
2013-2-13,48,33,26,34,24,20,81,72,53,29.89,29.69,9,2,9,0.00
2013-2-14,39,33,26,35,29,22,88,83,77,29.81,29.63,22,4,22,0.01
2013-2-15,34,28,21,28,18,11,80,68,54,30.07,29.81,17,5,17,0.00
2013-2-16,29,20,14,22,13,7,80,73,60,30.05,29.93,14,2,14,0.00
2013-2-17,30,17,4,14,7,-1,83,68,46,30.14,30.00,15,3,15,0.00
2013-2-18,45,32,12,37,22,4,74,66,52,30.14,29.56,14,3,14,0.00
2013-2-19,44,29,18,40,23,11,90,80,72,29.88,29.38,23,9,23,0.06
2013-2-20,23,20,16,16,12,8,77,72,65,30.18,29.88,18,7,18,0.00
2013-2-21,29,23,20,20,16,13,81,74,65,30.32,30.17,13,3,13,0.00
2013-2-22,33,27,22,30,24,16,91,85,77,30.20,29.84,12,4,12,0.00
2013-2-23,37,30,23,29,23,17,88,75,64,29.88,29.82,13,4,13,0.05
2013-2-24,38,28,22,28,22,16,85,76,62,30.10,29.85,14,3,14,0.06
2013-2-25,49,31,13,37,22,8,91,70,50,30.18,30.04,6,1,6,0.02
2013-2-26,36,31,24,31,26,18,92,81,68,30.07,29.46,15,4,15,0.21
2013-2-27,37,34,33,34,31,30,92,90,87,29.54,29.41,7,2,7,0.36
2013-2-28,37,33,29,33,30,25,93,88,81,29.92,29.51,19,4,19,0.07
2013-3-1,29,26,25,25,21,19,85,82,78,30.06,29.91,16,5,16,0.00
2013-3-2,28,24,21,22,19,16,83,79,75,30.04,30.00,12,4,12,0.00
2013-3-3,34,23,13,22,15,6,83,71,55,30.01,29.95,17,3,17,0.00
2013-3-4,44,24,8,30,14,4,87,67,40,30.10,30.00,7,1,7,0.00
2013-3-5,39,27,13,27,19,8,86,72,57,30.07,29.78,11,3,11,0.00
2013-3-6,43,33,26,33,26,22,84,76,65,30.16,29.81,13,3,13,0.00
2013-3-7,37,32,23,30,25,16,85,74,63,30.34,30.15,14,2,14,0.00
2013-3-8,52,32,15,34,22,11,88,68,48,30.44,30.33,6,1,6,0.00
2013-3-9,46,34,21,34,26,17,87,73,60,30.35,29.99,9,2,9,0.00
2013-3-10,61,49,34,48,38,28,80,67,54,29.99,29.76,15,4,15,0.00
2013-3-11,54,49,36,47,43,32,91,81,61,29.78,29.44,17,6,17,0.32
2013-3-12,37,34,28,32,29,24,89,83,77,29.87,29.65,17,5,17,0.05
2013-3-13,34,29,24,27,21,14,88,75,59,30.14,29.81,18,6,18,0.02
2013-3-14,46,31,18,28,19,11,80,63,44,30.20,30.03,16,3,16,0.01
2013-3-15,40,35,28,33,28,18,84,75,60,30.04,29.79,12,3,12,0.04
2013-3-16,34,30,26,30,25,21,88,84,76,29.99,29.72,11,2,11,0.00
2013-3-17,36,27,16,23,17,11,85,67,48,30.21,29.98,13,3,13,0.14
2013-3-18,35,30,21,32,25,13,90,83,69,30.13,29.51,16,4,16,0.05
2013-3-19,34,27,22,30,20,17,87,76,67,29.89,29.57,22,8,22,0.00
2013-3-20,30,24,17,21,15,9,74,68,59,29.90,29.84,16,6,16,0.00
2013-3-21,32,24,15,25,18,9,84,77,69,29.89,29.81,14,5,14,0.01
2013-3-22,45,32,25,29,22,18,80,67,49,29.98,29.88,13,4,13,0.00
2013-3-23,38,28,18,27,20,13,86,73,62,30.07,29.97,9,1,9,0.00
2013-3-24,38,28,18,29,22,14,87,75,57,30.00,29.60,13,3,13,0.00
2013-3-25,41,34,31,29,26,23,77,71,57,29.87,29.53,18,5,18,0.00
2013-3-26,46,36,32,35,29,26,83,74,57,30.07,29.88,14,4,14,0.00
2013-3-27,49,38,28,32,27,24,85,67,45,30.16,30.07,16,6,16,0.02
2013-3-28,57,46,28,32,28,21,79,52,38,30.21,30.15,13,6,13,0.00
2013-4-14,52,45,40,40,36,33,77,70,64,29.97,29.88,10,4,10,0.07
2013-4-15,69,54,36,55,45,31,87,73,56,29.91,29.84,17,4,17,0.03
2013-4-16,62,54,43,53,43,32,89,70,44,30.19,29.83,15,4,15,0.06
2013-4-17,62,48,38,42,36,29,88,65,43,30.29,29.97,11,3,11,0.90
2013-4-18,77,58,44,66,54,40,93,86,67,29.99,29.52,34,6,34,0.63
2013-4-19,58,44,36,56,39,30,93,84,75,29.71,29.31,25,8,25,0.77
2013-4-20,43,35,26,31,24,17,86,66,50,30.38,29.71,17,6,17,0.02
2013-4-21,53,37,20,34,25,15,89,63,45,30.55,30.38,11,2,11,0.00
2013-4-22,66,48,28,42,31,22,85,54,28,30.41,30.15,10,2,10,0.00
2013-4-23,71,54,34,50,40,26,84,63,42,30.15,29.77,17,4,17,0.54
2013-4-24,54,40,35,50,36,28,92,86,73,30.08,29.72,16,5,16,0.13
2013-4-25,54,40,29,42,31,23,87,73,46,30.29,30.04,22,4,22,0.09
2013-4-26,62,45,26,41,32,21,90,62,41,30.40,30.28,13,3,13,0.00
2013-4-27,75,54,32,47,37,27,90,56,30,30.31,30.07,11,2,11,0.00
2013-4-28,56,52,45,51,44,32,88,76,60,30.07,29.80,9,1,9,0.01
2013-4-29,74,61,53,59,54,50,91,78,58,29.90,29.80,8,2,8,0.00
2013-4-30,75,61,50,60,53,46,89,76,56,30.04,29.90,14,3,14,0.01
2013-5-1,84,68,48,63,54,45,92,64,41,30.20,30.03,10,2,10,0.00
2013-5-2,81,67,49,59,50,44,86,59,38,30.21,30.10,14,3,14,0.00
2013-5-3,80,66,52,59,46,36,70,50,25,30.11,30.02,12,3,12,0.00
2013-5-4,73,63,54,49,43,36,69,49,33,30.09,30.02,12,4,12,0.00
2013-5-5,74,60,44,48,39,34,78,49,26,30.07,30.00,11,2,11,0.00
2013-5-6,77,59,39,52,42,32,85,55,38,30.03,29.95,10,2,10,0.00
2013-5-7,78,62,43,57,47,37,84,59,38,30.03,29.97,11,2,11,0.00
2013-5-8,84,64,47,54,48,41,88,59,30,30.00,29.91,10,1,10,0.00
2013-5-9,87,68,46,60,50,40,89,57,31,29.94,29.87,8,2,8,0.00
2013-5-10,67,57,43,61,50,39,88,79,59,29.90,29.73,14,4,14,0.21
2013-5-11,65,48,38,50,41,31,89,76,48,29.86,29.69,23,4,23,0.00
2013-5-12,50,41,30,33,29,20,80,64,47,30.04,29.84,18,6,18,0.00
2013-5-13,64,43,24,33,26,18,85,54,28,30.12,30.04,14,2,14,0.00
2013-5-14,82,60,39,56,41,27,64,52,37,30.05,29.68,15,3,15,0.00
2013-5-15,86,72,55,59,49,42,84,49,26,29.78,29.57,17,5,17,0.00
2013-5-16,88,68,44,54,44,35,82,47,25,30.00,29.77,15,2,15,0.00
2013-5-17,78,64,49,50,43,34,67,48,32,30.11,30.00,8,2,8,0.00
2013-5-18,84,69,54,53,46,40,65,46,31,30.11,30.00,10,2,10,0.00
2013-5-19,91,72,49,64,55,41,80,57,39,30.02,29.86,8,1,8,0.00
2013-5-20,93,77,61,72,63,54,87,64,39,29.91,29.76,17,4,17,0.00
2013-5-21,89,78,69,68,62,57,78,60,41,29.81,29.70,14,4,14,0.00
2013-5-22,83,70,62,65,61,57,86,73,47,29.74,29.61,18,4,18,0.08
2013-5-23,63,53,43,58,50,39,91,88,79,30.11,29.68,15,3,15,0.04
2013-5-24,61,47,38,42,38,31,90,71,46,30.31,30.11,14,3,14,0.00
2013-5-25,70,52,31,44,36,26,90,58,35,30.35,30.24,10,2,10,0.00
2013-5-26,73,56,33,47,36,27,87,52,28,30.30,30.18,13,1,13,0.00
2013-5-27,62,50,38,48,41,29,89,71,53,30.23,29.96,8,1,8,0.46
2013-5-28,75,62,51,71,59,48,92,88,81,29.96,29.78,13,2,13,0.32
2013-5-29,84,75,64,69,65,59,89,73,53,29.97,29.73,16,3,16,0.02
2013-5-30,90,76,65,74,66,60,84,74,53,30.03,29.93,16,3,16,0.26
2013-5-31,83,74,68,70,66,63,89,78,62,29.98,29.81,14,4,14,0.08
2013-6-1,79,71,64,69,64,61,91,79,63,29.83,29.67,14,4,14,0.34
2013-6-2,71,64,53,63,56,44,89,76,63,29.95,29.63,15,4,15,0.17
2013-6-3,71,57,40,48,42,34,85,59,39,30.05,29.95,10,2,10,0.00
2013-6-4,76,61,43,54,45,37,86,58,38,30.15,30.04,9,1,9,0.00
2013-6-5,77,63,47,51,44,35,71,52,35,30.14,29.95,6,1,6,0.00
2013-6-6,70,61,56,54,49,42,72,63,55,29.97,29.83,9,2,9,0.00
2013-6-7,62,57,52,54,50,45,85,78,71,29.88,29.83,10,2,10,0.00
2013-6-8,78,65,55,58,53,50,85,68,48,30.04,29.87,6,1,6,0.00
2013-6-9,78,68,57,63,56,50,85,67,54,30.07,29.92,8,2,8,0.00
2013-6-10,74,66,62,68,62,53,91,85,62,29.92,29.70,6,1,6,1.40
2013-6-11,79,71,64,68,64,61,91,81,65,29.87,29.74,10,2,10,0.04
2013-6-12,77,69,60,70,64,56,90,84,76,29.91,29.61,10,1,10,0.78
2013-6-13,75,68,61,64,61,57,92,79,58,29.90,29.54,13,3,13,0.94
2013-6-14,77,67,58,60,56,51,88,69,50,30.05,29.90,11,2,11,0.00
2013-6-15,81,67,53,66,57,48,90,72,53,30.04,29.89,13,2,13,0.00
2013-6-16,83,70,62,67,61,53,90,74,45,29.89,29.74,14,3,14,0.53
2013-6-17,89,73,56,68,58,51,88,63,39,29.89,29.80,10,2,10,0.00
2013-6-18,72,64,54,58,52,41,87,66,42,30.04,29.85,12,2,12,0.32
2013-6-19,78,63,45,57,48,38,84,60,42,30.12,30.03,8,1,8,0.00
2013-6-20,84,69,51,60,54,45,85,60,41,30.17,30.10,8,1,8,0.00
2013-6-21,89,73,56,71,59,50,85,64,47,30.17,30.01,9,1,9,0.00
2013-6-22,87,77,68,73,66,57,80,69,61,30.06,29.94,9,2,9,0.00
2013-6-23,91,80,68,72,67,63,87,68,49,30.03,29.93,10,2,10,0.00
2013-6-24,87,77,66,73,67,60,84,72,58,30.03,29.89,10,2,10,0.06
2013-6-25,84,73,67,73,67,62,90,82,67,29.97,29.79,10,2,10,0.63
2013-6-26,81,73,65,73,68,62,91,84,72,29.86,29.71,7,1,8,0.06
2013-6-27,84,73,66,74,68,63,91,85,72,29.73,29.60,5,1,5,1.36
2013-6-28,74,67,64,70,64,62,92,89,82,29.61,29.53,8,1,8,0.09
2013-7-1,67,65,60,59,58,55,85,78,71,30.05,29.99,7,1,7,0.04
2013-7-2,75,66,59,66,60,54,87,80,72,30.06,30.00,7,1,7,0.01
2013-7-3,83,70,60,72,63,56,90,78,61,30.09,30.02,7,1,7,0.00
2013-7-4,80,73,66,69,64,60,89,74,58,30.13,30.06,7,1,7,0.00
2013-7-5,85,75,67,70,65,60,88,72,53,30.11,30.03,5,1,5,0.00
2013-7-6,87,76,67,75,68,62,89,77,62,30.10,29.98,5,1,5,0.00
2013-7-7,82,75,70,71,68,64,88,79,64,30.03,29.96,8,2,8,0.04
2013-7-8,85,75,68,76,68,64,90,80,68,30.04,29.96,13,2,13,0.04
2013-7-9,89,77,70,74,70,66,89,79,60,29.98,29.87,12,1,12,0.43
2013-7-10,88,78,66,78,70,57,91,77,56,29.95,29.78,13,3,13,0.01
2013-7-11,78,69,58,61,57,53,85,66,51,30.06,29.94,9,1,9,0.00
2013-7-12,73,60,55,62,54,49,89,79,67,30.14,30.05,6,0,6,0.00
2013-7-13,86,74,58,69,61,53,91,66,45,30.21,30.13,5,1,5,0.00
2013-7-14,92,76,64,76,67,58,89,74,52,30.25,30.19,4,0,4,0.00
2013-7-15,94,80,69,78,71,64,88,75,59,30.29,30.22,5,0,5,0.00
2013-7-16,93,84,75,79,74,70,87,72,55,30.30,30.23,9,1,9,0.01
2013-7-17,94,83,72,79,74,67,88,73,58,30.28,30.15,8,1,8,0.00
2013-7-18,96,84,72,79,73,67,89,70,52,30.16,29.96,10,2,10,0.00
2013-7-19,93,85,76,76,72,71,84,66,49,29.97,29.72,22,4,22,0.13
2013-7-20,87,76,68,72,66,60,90,71,47,29.92,29.72,18,2,22,0.23
2013-7-21,83,73,62,67,62,55,84,68,54,30.00,29.91,8,1,8,0.00
2013-7-22,81,74,68,70,65,62,85,74,59,29.95,29.76,6,1,6,0.00
2013-7-23,86,71,59,74,64,51,88,80,62,29.87,29.68,13,2,13,0.97
2013-7-24,71,63,54,56,52,47,83,68,56,30.04,29.87,9,2,9,0.00
2013-7-25,77,65,49,61,53,44,90,68,50,30.10,30.03,5,0,5,0.00
2013-7-26,81,69,56,64,58,50,86,68,50,30.09,29.90,6,1,6,0.15
2013-7-27,74,66,55,67,61,50,88,83,76,29.91,29.73,11,1,11,0.56
2013-7-28,65,58,50,57,52,46,90,81,69,29.96,29.82,12,2,12,0.01
2013-7-29,72,62,55,60,54,50,86,78,64,30.16,29.95,10,2,10,0.02
2013-7-30,81,66,50,66,56,46,92,72,53,30.21,30.11,5,0,5,0.00
2013-7-31,75,68,64,68,63,58,89,84,76,30.11,29.88,7,0,7,0.26
2013-8-1,78,68,62,68,61,53,90,78,60,29.92,29.86,12,2,12,0.00
2013-8-2,75,65,54,64,58,49,90,79,64,29.92,29.84,12,2,12,0.00
2013-8-3,81,69,57,66,58,53,91,70,48,30.04,29.89,11,1,11,0.00
2013-8-4,72,65,55,58,54,49,83,69,53,30.15,30.04,12,2,12,0.00
2013-8-5,73,64,52,61,55,47,86,72,54,30.10,29.95,7,1,7,0.00
2013-8-6,78,69,64,69,63,56,86,79,71,29.95,29.87,7,1,7,0.05
2013-8-7,80,71,66,74,67,62,91,86,78,29.93,29.82,8,1,8,0.30
2013-8-8,77,70,65,69,63,58,89,78,64,30.00,29.89,8,2,8,0.00
2013-8-9,82,71,60,64,59,55,87,68,49,30.00,29.94,9,1,9,0.00
2013-8-10,79,69,61,66,59,54,86,71,56,30.12,30.00,6,1,6,0.00
2013-8-11,81,69,57,65,59,52,87,70,53,30.11,30.02,9,1,9,0.00
2013-8-12,72,66,64,68,62,58,91,85,69,30.05,29.83,5,1,5,1.12
2013-8-13,68,61,54,62,54,46,91,77,57,30.04,29.83,17,3,17,0.01
2013-8-14,75,59,48,57,49,43,86,71,52,30.15,30.04,10,2,10,0.00
2013-8-15,77,62,47,60,51,42,90,70,49,30.15,30.07,6,1,6,0.00
2013-8-16,79,66,51,62,54,46,88,68,49,30.19,30.09,7,1,7,0.00
2013-8-17,84,67,51,65,55,46,90,68,48,30.25,30.17,4,0,4,0.00
2013-8-18,87,69,54,68,57,49,90,68,47,30.20,30.09,4,0,4,0.00
2013-8-19,85,70,55,68,57,50,87,66,41,30.11,30.02,10,1,10,0.00
2013-8-20,87,73,58,70,62,52,88,70,51,30.13,30.05,8,1,8,0.00
2013-8-21,89,75,62,73,66,58,89,73,57,30.12,29.98,9,1,9,0.00
2013-8-22,84,74,68,70,66,61,83,76,61,30.04,29.94,8,1,8,0.00
2013-8-23,82,71,57,65,57,48,87,65,35,30.19,30.02,9,1,9,0.00
2013-8-24,86,69,54,68,57,48,89,66,45,30.29,30.18,6,1,6,0.00
2013-8-25,87,73,55,70,60,50,87,66,47,30.28,30.14,10,2,10,0.00
2013-8-26,87,78,70,73,67,60,78,67,59,30.15,29.97,10,3,10,0.00
2013-8-27,83,76,71,77,72,67,90,85,78,29.99,29.81,19,1,19,0.44
2013-8-28,82,76,69,76,72,64,90,87,78,30.00,29.78,10,2,10,0.18
2013-8-29,88,75,64,77,68,61,91,80,66,30.07,29.99,4,0,4,0.00
2013-8-30,86,76,64,74,68,60,90,75,59,29.99,29.74,12,2,12,0.00
2013-8-31,82,75,68,71,67,62,86,77,65,29.84,29.74,8,1,8,0.00
2013-9-1,81,73,67,72,67,63,89,83,72,29.84,29.71,4,0,4,0.07
2013-9-2,77,70,59,69,61,51,88,75,60,29.91,29.72,14,3,14,0.00
2013-9-3,79,65,58,60,54,50,79,68,51,30.01,29.90,13,2,13,0.00
2013-9-4,82,67,52,65,57,46,90,70,53,30.06,30.00,12,2,12,0.00
2013-9-5,73,63,53,60,51,44,82,65,48,30.23,30.06,10,2,10,0.00
2013-9-6,78,61,44,57,48,39,88,65,45,30.25,30.04,6,1,6,0.00
2013-9-7,84,69,55,69,59,48,82,73,57,30.05,29.88,10,1,10,0.03
2013-9-8,75,69,56,65,60,48,86,73,57,30.07,29.91,9,1,9,0.00
2013-9-9,78,64,52,72,59,46,91,83,73,30.05,29.88,5,0,5,0.20
2013-9-10,92,81,69,77,70,65,89,72,47,30.01,29.86,10,2,10,0.02
2013-9-11,91,79,70,74,69,65,83,72,57,30.02,29.90,14,2,14,0.02
2013-9-12,78,72,68,65,62,55,88,74,48,29.94,29.84,19,2,19,0.00
2013-9-13,44,44,43,37,36,36,77,76,74,30.11,30.10,1,1,1,0.00
2013-9-14,70,54,38,51,42,34,90,66,45,30.16,30.06,8,1,8,0.00
2013-9-15,64,54,45,53,47,39,84,76,65,30.10,30.03,6,1,6,0.07
2013-9-16,60,56,46,52,48,40,89,78,60,30.34,30.09,10,2,10,0.00
2013-9-17,68,52,36,57,43,32,91,72,53,30.36,30.19,5,1,5,0.01
2013-9-18,80,60,44,62,49,37,90,69,47,30.19,30.01,7,1,7,0.00
2013-9-19,81,68,56,69,61,51,88,77,66,30.02,29.89,8,1,8,0.00
2013-9-20,79,72,66,71,66,63,90,84,69,29.89,29.72,9,2,12,0.21
2013-9-21,66,62,55,63,55,46,90,79,59,29.85,29.66,16,3,16,0.01
2013-9-22,60,53,45,46,43,37,80,68,56,30.05,29.85,11,2,11,0.00
2013-9-23,61,49,38,49,41,33,90,74,60,30.15,30.04,5,0,5,0.00
2013-9-24,69,53,38,55,44,34,91,72,54,30.11,29.96,5,0,5,0.00
2013-9-25,74,56,42,60,46,37,90,72,53,29.97,29.92,4,0,6,0.00
2013-9-26,76,58,41,60,46,36,91,68,44,30.11,29.97,8,1,8,0.00
2013-9-27,80,59,43,63,49,38,90,70,49,30.20,30.11,5,1,5,0.00
2013-9-28,81,64,48,65,53,42,89,69,47,30.17,29.99,7,1,7,0.00
2013-9-29,64,61,59,59,55,52,89,82,74,30.00,29.93,6,1,6,0.10
2013-9-30,72,62,53,62,55,47,90,78,55,29.99,29.89,8,1,8,0.01
2013-10-1,72,60,48,64,54,44,91,82,71,29.98,29.91,10,2,10,0.00
2013-10-2,79,67,53,62,54,44,90,67,35,30.05,29.92,8,1,8,0.01
2013-10-3,81,65,52,68,57,44,88,76,64,30.04,29.90,11,1,11,0.00
2013-10-4,79,70,64,70,64,58,88,81,71,30.00,29.91,8,1,8,0.01
2013-10-5,73,68,64,69,64,60,91,88,85,30.02,29.84,6,1,6,1.26
2013-10-6,69,65,54,66,62,51,91,90,84,29.84,29.61,12,2,12,0.38
2013-10-7,58,51,43,52,46,40,92,86,74,30.08,29.66,13,3,13,0.01
2013-10-8,71,53,40,58,44,37,93,74,50,30.23,30.07,7,1,7,0.01
2013-10-9,75,55,40,60,45,35,91,71,50,30.27,30.17,6,0,6,0.00
2013-10-10,76,55,41,61,45,36,90,70,46,30.19,30.09,5,0,5,0.00
2013-10-11,76,55,38,60,44,33,91,69,44,30.11,30.03,4,0,4,0.00
2013-10-12,81,61,46,66,51,41,91,70,45,30.07,29.99,8,1,8,0.00
2013-10-13,70,60,44,56,47,36,85,65,39,30.30,30.05,10,2,10,0.00
2013-10-14,66,50,39,47,40,34,89,68,49,30.36,30.22,7,1,7,0.00
2013-10-15,65,53,39,59,47,34,90,82,75,30.24,29.79,9,1,9,0.07
2013-10-16,62,56,51,59,50,44,90,81,64,29.87,29.77,14,3,14,0.01
2013-10-17,52,50,47,48,46,44,89,86,82,29.86,29.71,12,2,12,0.17
2013-10-18,63,51,41,51,43,38,91,76,48,29.87,29.80,12,2,12,0.01
2013-10-19,48,44,40,43,40,36,89,84,77,29.86,29.71,11,2,11,0.22
2013-10-20,59,48,37,47,41,34,90,78,57,29.86,29.78,13,2,13,0.01
2013-10-21,54,50,42,48,42,34,85,75,67,29.81,29.75,12,3,12,0.02
2013-10-22,50,42,32,36,31,26,82,67,53,29.86,29.79,11,3,11,0.00
2013-10-23,49,39,29,38,30,24,88,71,53,29.88,29.76,10,2,10,0.00
2013-10-24,48,38,33,37,31,28,86,75,52,30.12,29.87,12,3,12,0.00
2013-10-25,49,39,32,40,31,27,89,74,59,30.26,30.05,9,2,9,0.00
2013-10-26,52,43,37,39,32,28,82,65,54,30.04,29.73,15,4,15,0.06
2013-10-27,55,41,31,39,32,27,86,73,49,30.01,29.93,9,1,9,0.00
2013-10-28,52,40,30,41,32,24,86,75,65,30.33,29.98,8,1,8,0.00
2013-10-29,52,43,36,40,35,29,80,72,62,30.37,30.18,5,1,5,0.00
2013-10-30,68,48,31,54,39,26,91,72,53,30.18,29.90,7,1,7,0.09
2013-10-31,62,59,53,59,56,48,93,90,82,29.91,29.13,14,4,14,1.10
2013-11-1,60,49,45,58,44,40,92,84,78,29.63,29.10,25,6,25,0.06
2013-11-2,46,44,35,43,41,31,90,88,83,30.05,29.60,11,2,11,0.19
2013-11-3,46,36,29,40,32,26,92,84,74,30.37,30.05,3,1,3,0.00
2013-11-4,49,40,31,37,32,27,87,75,53,30.39,30.24,9,2,9,0.00
2013-11-5,55,50,44,47,44,36,85,79,72,30.29,30.11,8,2,8,0.00
2013-11-6,55,51,42,52,46,38,90,83,69,30.26,29.78,16,6,16,0.15
2013-11-7,45,40,34,38,32,28,87,74,54,30.14,29.98,17,4,17,0.03
2013-11-8,50,37,29,36,29,22,88,73,53,30.27,30.11,10,2,10,0.00
2013-11-9,58,47,36,42,36,29,77,66,52,30.16,29.80,24,6,24,0.04
2013-11-10,50,42,31,39,31,23,82,65,53,30.26,29.90,20,4,20,0.00
2013-11-11,43,36,27,37,30,22,88,79,72,30.30,30.02,13,4,13,0.18
2013-11-12,36,27,21,26,19,13,85,72,57,30.51,30.30,15,4,15,0.03
2013-11-13,45,30,16,28,17,10,86,62,32,30.51,30.14,15,5,15,0.00
2013-11-14,56,41,31,32,23,17,62,50,38,30.15,29.97,15,6,15,0.00
2013-11-15,55,43,36,33,27,22,63,54,42,30.05,29.98,11,4,11,0.00
2013-11-16,57,46,32,52,40,24,86,79,63,30.08,29.79,15,4,15,0.01
2013-11-17,62,57,46,58,53,40,91,87,75,29.80,29.25,32,9,32,0.56
2013-11-18,46,40,34,41,32,24,82,73,67,30.12,29.50,21,9,28,0.00
2013-11-19,45,34,22,30,23,16,77,64,48,30.38,30.12,13,3,13,0.00
2013-11-20,48,33,19,35,23,14,89,70,42,30.41,30.21,11,2,11,0.00
2013-11-21,49,44,40,43,37,29,88,77,65,30.26,30.16,12,3,12,0.25
2013-11-22,45,38,25,42,34,21,90,85,78,30.35,30.12,18,3,18,0.04
2013-11-23,29,24,17,24,18,10,88,76,55,30.48,30.25,20,6,20,0.00
2013-11-24,28,18,9,17,11,4,83,73,59,30.56,30.37,12,3,12,0.00
2013-11-25,32,25,18,24,16,10,80,69,54,30.37,30.05,16,6,16,0.00
2013-11-26,35,31,28,29,26,23,85,82,77,30.08,29.92,12,3,12,0.01
2013-11-27,29,24,17,23,15,9,84,70,53,30.17,29.91,20,6,20,0.00
2013-11-28,29,22,15,22,15,8,82,74,66,30.38,30.17,8,1,8,0.00
2013-11-29,39,23,11,30,16,6,88,76,58,30.62,30.38,5,1,5,0.00
2013-11-30,48,34,26,32,25,20,79,69,50,30.51,30.08,11,3,11,0.00
2013-12-1,47,35,26,36,29,20,84,77,64,30.08,29.97,10,1,10,0.00
2013-12-2,41,32,22,30,25,16,86,75,57,29.99,29.87,7,0,7,0.00
2013-12-3,38,33,20,35,29,15,89,85,77,29.89,29.82,8,2,8,0.04
2013-12-4,57,46,36,53,43,32,91,89,86,29.88,29.61,12,2,12,0.03
2013-12-5,57,42,30,54,35,22,88,75,63,30.13,29.60,20,6,20,0.00
2013-12-6,30,26,20,22,18,12,74,71,68,30.37,30.10,11,4,11,0.00
2013-12-7,30,19,9,15,10,1,77,66,52,30.58,30.37,13,3,13,0.00
2013-12-8,29,19,7,26,13,1,88,78,68,30.55,29.95,11,2,11,0.00
2013-12-9,29,26,19,26,21,11,88,80,71,30.07,29.85,22,6,22,0.00
2013-12-10,24,18,9,15,10,3,80,70,50,30.14,29.92,21,6,21,0.00
2013-12-11,26,17,6,19,10,-2,81,74,67,30.41,30.14,15,4,15,0.00
2013-12-12,6,2,-1,-1,-4,-7,80,75,72,30.40,30.37,3,0,4,0.00
2013-12-16,29,17,0,20,9,-5,86,73,62,30.14,29.96,0,0,0,0.00
2013-12-17,29,22,12,23,17,6,85,81,75,29.97,29.85,0,0,0,0.00
2013-12-18,33,26,21,25,21,14,87,79,66,30.08,29.87,0,0,0,0.00
2013-12-19,44,33,22,36,26,16,85,77,71,29.97,29.83,0,0,0,0.12
2013-12-20,37,35,34,35,32,30,92,89,84,29.89,29.71,0,0,0,0.46
2013-12-21,35,33,33,33,31,30,93,92,91,29.85,29.64,0,0,0,0.61
2013-12-22,37,34,32,35,32,30,93,91,89,29.94,29.54,0,0,0,0.32
2013-12-23,32,28,18,30,23,12,92,85,76,30.27,29.94,0,0,0,0.00
2013-12-24,23,15,5,15,9,0,83,77,65,30.48,30.26,0,0,0,0.00
2013-12-25,24,19,6,21,14,2,88,84,80,30.45,30.07,0,0,0,0.00
2013-12-26,29,26,24,24,21,18,89,82,72,30.25,29.99,0,0,0,0.00
2013-12-27,43,33,25,36,28,20,87,82,69,30.27,30.04,0,0,0,0.07
2013-12-28,54,41,32,41,33,27,84,74,55,30.09,29.88,0,0,0,0.00
2013-12-29,45,34,21,35,27,15,84,76,65,29.99,29.68,0,0,0,0.00
2013-12-30,23,19,14,15,10,5,77,68,61,30.22,29.99,0,0,0,0.00
2013-12-31,22,17,14,14,10,8,79,74,68,30.28,30.02,0,0,0,0.00
2014-1-1,16,14,12,11,8,7,85,79,76,30.34,30.17,0,0,0,0.00
2014-1-2,16,12,2,11,6,-5,85,79,71,30.24,30.04,0,0,0,0.00